Culdrose, United Kingdom

3:16 PM BST on August 30, 2016 (GMT +0100)
Culdrose Navy

Weather History for EGDR - January, 2013

Change the Weather History Date:

Thursday, January 10, 2013

  Actual Average Record
Temperature  
Mean Temperature 44 °F -  
Max Temperature 50 °F 46 °F 57 °F (1998)
Min Temperature 37 °F 39 °F 30 °F (1999)
Degree Days  
Heating Degree Days 22    
Moisture  
Dew Point 43 °F    
Average Humidity 91    
Maximum Humidity 100    
Minimum Humidity 80    
Precipitation  
Precipitation 0.12 in - - ()
Sea Level Pressure  
Sea Level Pressure 30.03 in    
Wind  
Wind Speed 8 mph ()    
Max Wind Speed 21 mph    
Max Gust Speed 33 mph    
Visibility 6.5 miles    
Events Fog , Rain    
Averages and records for this station are not official NWS values.
T = Trace of Precipitation, MM = Missing Value Source: Averaged Metar Reports

Daily Weather History Graph

Daily Weather History Graph

Search for Another Location

Airport or City:

Trip Planner

Search our weather history database for the weather conditions in past years. The results will help you decide how hot, cold, wet, or windy it might be!

Date:

Astronomy

Jan. 10, 2013 Rise Set
Actual Time 8:17 AM GMT 4:40 PM GMT
Civil Twilight 7:39 AM GMT 5:17 PM GMT
Nautical Twilight 6:58 AM GMT 5:58 PM GMT
Astronomical Twilight 6:19 AM GMT 6:37 PM GMT
Moon 6:43 AM GMT (1/10) 3:32 PM GMT (1/10)
Length of Visible Light 9h 38m
Length of Day
8h 23m
Waning Crescent, 3% of the Moon is Illuminated
Jan 10
Waning Crescent
Jan 11
New
Jan 18
First Quarter
Jan 27
Full
Feb 3
Last Quarter

Hourly Weather History & Observations

Time (GMT) Temp. Windchill Dew Point Humidity Pressure Visibility Wind Dir Wind Speed Gust Speed Precip Events Conditions
12:50 AM 44.6 °F 39.7 °F 42.8 °F 93% 30.04 in 6.2 mi West 9.2 mph - N/A Fog Patches of Fog
1:50 AM 41.0 °F - 39.2 °F 93% 30.04 in - WSW 2.3 mph - N/A   Clear
2:50 AM 41 °F - 40 °F 97% 30.04 in 11 mi North 2.3 mph - -   Partly Cloudy
2:50 AM 41.0 °F - 41.0 °F 100% 30.01 in 6.2 mi North 2.3 mph - N/A   Mostly Cloudy
3:50 AM 41.0 °F 39.0 °F 41.0 °F 100% 30.01 in 6.2 mi SSW 3.5 mph - N/A   Partly Cloudy
4:50 AM 37.4 °F - 35.6 °F 93% 30.01 in 6.2 mi SE 2.3 mph - N/A Fog Patches of Fog
5:50 AM 38 °F - 38 °F 98% 30.01 in 12 mi ESE 4.6 mph - - Fog Light Fog
5:50 AM 39.2 °F 35.9 °F 37.4 °F 93% 29.98 in 6.2 mi ESE 4.6 mph - N/A   Mostly Cloudy
6:50 AM 41.0 °F 35.8 °F 39.2 °F 93% 29.98 in 6.2 mi ESE 8.1 mph - N/A   Overcast
7:50 AM 46.4 °F 42.9 °F 44.6 °F 93% 29.98 in 3.7 mi South 6.9 mph - N/A Rain Light Rain
8:31 AM 46.4 °F 42.4 °F 46.4 °F 100% 29.98 in 2.5 mi South 8.1 mph - N/A Rain Light Rain
8:50 AM 44 °F - 43 °F 96% 29.99 in 2 mi SE 6.9 mph - - Rain Rain
8:50 AM 44.6 °F 40.7 °F 42.8 °F 93% 29.98 in 2.5 mi SE 6.9 mph - N/A Rain Rain
9:50 AM 50.0 °F - 48.2 °F 94% 29.95 in 1.2 mi South 4.6 mph - N/A Rain Light Rain
10:05 AM 50.0 °F - 48.2 °F 94% 29.95 in 0.9 mi South 5.8 mph - N/A Rain Rain
10:36 AM 48.2 °F - 46.4 °F 93% 29.98 in 5.0 mi NW 12.7 mph - N/A   Mostly Cloudy
10:50 AM 48.2 °F - 46.4 °F 93% 29.98 in 6.2 mi NW 15.0 mph - N/A   Haze
11:50 AM 49 °F - 47 °F 91% 30.00 in 12 mi WNW 15.0 mph - -   Mostly Cloudy
11:50 AM 50.0 °F - 46.4 °F 87% 29.98 in 6.2 mi WNW 15.0 mph - N/A   Scattered Clouds
12:50 PM 46.4 °F 40.4 °F 44.6 °F 93% 29.98 in 6.2 mi NW 13.8 mph - N/A   Haze
1:50 PM 50.0 °F - 44.6 °F 82% 29.98 in 6.2 mi NW 20.7 mph 33.4 mph N/A   Scattered Clouds
2:50 PM 48 °F - 44 °F 81% 30.02 in 9 mi NW 16.1 mph - -   Mostly Cloudy
2:50 PM 48.2 °F - 44.6 °F 87% 30.01 in 6.2 mi NW 16.1 mph 29.9 mph N/A   Scattered Clouds
3:50 PM 48.2 °F - 42.8 °F 82% 30.04 in 6.2 mi NW 17.3 mph 31.1 mph N/A   Scattered Clouds
4:50 PM 46.4 °F 40.7 °F 42.8 °F 87% 30.04 in 6.2 mi NW 12.7 mph - N/A   Partly Cloudy
5:50 PM 46 °F - 42 °F 80% 30.07 in 9 mi NW 13.8 mph - -   Partly Cloudy
5:50 PM 46.4 °F 40.4 °F 42.8 °F 87% 30.06 in 6.2 mi NW 13.8 mph - N/A   Partly Cloudy
6:50 PM 44.6 °F 38.8 °F 41.0 °F 87% 30.06 in 6.2 mi WNW 11.5 mph - N/A   Partly Cloudy
7:50 PM 46.4 °F 40.4 °F 41.0 °F 81% 30.09 in 6.2 mi WNW 13.8 mph - N/A   Partly Cloudy
8:50 PM 45 °F - 42 °F 84% 30.12 in 13 mi WNW 13.8 mph - -  
8:50 PM 44.6 °F 38.1 °F 41.0 °F 87% 30.09 in 6.2 mi WNW 13.8 mph - N/A   Unknown
9:50 PM 44.6 °F 37.8 °F 42.8 °F 93% 30.09 in 6.2 mi WNW 15.0 mph - N/A   Partly Cloudy
10:50 PM 44.6 °F 40.2 °F 41.0 °F 87% 30.12 in 6.2 mi WNW 8.1 mph - N/A   Partly Cloudy
11:50 PM 45 °F - 43 °F 88% 30.14 in 12 mi West 9.2 mph - -   Scattered Clouds
11:50 PM 44.6 °F 39.7 °F 42.8 °F 93% 30.12 in 6.2 mi West 9.2 mph - N/A   Partly Cloudy